Theta_e
335 334 334 333 334 335 333 333 331 332 334 335 336 337 335 335 336 335 334 332 331 329 328 327 326 326 325 326 321 311 308 308 309 313 317 318 317 318 317 320 327 328 328 330 331 329 326 328 330 329 327 322 320 322 324 324 325 325 326 327 327 326 325 320 318 329 332 331 328 316 310 313 314 316 319 322 323 322 321 320 319 318 319 320 321
335 334 334 333 333 335 334 334 332 333 335 335 336 336 334 335 335 333 332 330 329 327 326 326 326 326 323 322 321 313 308 309 308 310 313 315 315 316 316 318 325 325 325 329 330 329 326 329 330 328 321 317 317 320 322 323 323 323 323 323 323 321 319 316 316 324 327 326 319 310 308 309 310 311 313 317 319 320 319 318 317 316 315 315 316
334 335 334 333 334 334 333 333 332 333 334 335 335 334 334 334 333 330 330 329 327 326 326 328 328 326 320 318 319 312 308 308 308 309 310 312 314 314 314 315 320 322 324 328 329 326 325 326 324 320 316 314 313 313 314 315 316 316 316 316 316 316 315 314 315 317 318 316 310 307 308 308 308 308 310 312 314 315 315 314 313 313 312 311 311
335 335 335 334 334 334 333 332 332 333 334 334 334 333 332 332 330 328 327 326 326 324 325 328 328 324 316 315 316 311 309 308 308 309 308 310 311 313 313 313 318 322 324 327 328 328 330 326 318 313 312 311 309 308 308 308 309 309 309 310 311 311 312 313 315 314 312 310 308 309 310 312 311 309 310 309 309 310 309 311 314 314 313 310 309
335 335 335 335 335 334 334 334 333 334 333 331 331 331 330 329 326 325 323 322 323 323 324 327 326 321 315 314 313 310 309 308 307 308 308 309 309 311 310 312 319 322 325 328 328 328 330 325 314 309 308 307 307 307 307 307 308 308 308 308 309 309 311 313 314 313 310 309 310 313 316 320 318 316 315 310 307 308 308 312 318 319 314 311 310
336 336 334 335 335 335 335 334 334 335 332 327 327 329 328 325 323 323 322 318 320 325 325 327 325 321 317 314 312 311 310 308 307 307 308 308 309 309 308 315 321 323 327 329 327 328 329 323 310 306 307 307 308 307 308 308 308 308 308 308 308 309 310 311 311 311 311 312 315 318 320 322 321 320 319 315 311 310 312 315 319 319 315 313 312
336 336 336 335 336 335 334 334 333 334 332 326 324 325 324 323 322 322 321 317 320 326 327 326 324 321 320 316 315 313 312 310 307 306 307 308 308 308 310 319 323 324 329 329 328 329 327 319 308 307 308 307 308 308 308 308 308 309 309 309 308 308 309 310 310 313 317 320 322 323 322 322 320 320 320 319 317 313 315 317 316 315 316 315 314
334 335 336 335 335 335 334 334 333 333 333 330 326 324 323 322 322 322 320 317 322 327 327 325 322 321 322 319 318 316 314 312 309 306 305 306 306 306 308 319 323 323 327 327 325 323 318 312 310 311 309 308 308 307 308 308 309 309 309 309 308 309 311 313 314 317 323 324 325 324 323 324 322 320 317 314 316 315 316 315 313 314 316 315 314
335 335 335 335 335 335 334 334 333 333 333 332 330 327 325 323 322 322 319 317 324 328 326 323 321 322 322 321 321 319 317 315 313 309 306 305 305 306 307 317 323 322 324 326 321 315 314 315 317 316 309 307 308 308 308 308 309 309 309 309 309 311 314 319 321 321 324 324 324 324 323 325 324 323 319 311 310 311 313 313 313 314 315 315 315
337 337 335 336 336 334 334 333 333 333 333 333 331 328 325 324 323 320 318 320 325 328 326 323 322 322 321 321 322 321 320 317 315 312 309 305 305 306 309 318 323 322 324 326 322 316 318 318 316 313 308 307 307 308 308 308 309 309 309 309 309 313 319 323 325 324 324 325 324 324 323 324 324 324 323 316 313 313 313 315 318 317 317 318 319
337 338 336 337 336 334 333 333 333 333 333 333 331 327 325 324 322 319 319 322 325 328 327 326 324 322 320 320 320 320 320 318 316 314 312 308 306 306 310 319 321 319 320 322 322 321 318 313 309 307 306 307 307 307 307 308 308 308 308 309 310 314 321 323 325 325 326 326 325 324 324 325 324 323 324 322 320 321 320 320 320 321 322 322 321
338 338 337 337 335 334 334 333 333 333 332 333 331 326 325 323 321 320 320 322 325 328 329 328 325 321 320 320 319 318 318 317 316 315 314 310 308 305 308 318 320 317 319 320 321 319 314 308 306 306 306 306 306 306 306 306 306 306 307 307 310 316 322 324 325 325 326 326 324 324 325 325 325 324 325 325 325 324 323 323 322 323 323 323 322
338 338 337 336 335 335 335 334 333 333 333 333 331 327 325 323 322 321 320 322 325 328 329 328 324 321 320 321 319 317 317 317 316 315 314 311 309 306 306 314 316 314 316 318 317 312 308 306 306 306 305 305 305 305 305 305 305 305 306 306 309 317 323 325 325 325 325 324 323 324 325 325 325 325 326 325 324 323 322 324 325 324 323 322 322
338 338 337 336 335 336 335 334 333 333 333 333 331 328 326 324 323 322 321 322 324 327 327 326 323 321 321 322 321 319 318 317 317 316 314 312 309 306 305 307 308 307 309 309 309 307 305 305 305 305 304 305 305 305 305 305 305 304 305 305 308 316 322 324 323 324 324 323 323 324 325 325 325 324 324 324 323 322 322 324 325 324 324 323 322
338 338 337 336 336 335 335 335 334 334 333 333 331 329 327 325 324 323 322 321 323 325 326 327 324 323 323 323 323 321 320 318 318 317 314 312 308 306 304 304 304 304 305 305 305 305 304 304 305 306 307 309 310 311 310 309 308 306 304 304 306 311 319 323 323 322 323 323 323 324 325 325 325 324 324 323 323 323 323 324 323 323 324 324 323
337 337 337 337 337 336 336 336 335 334 334 333 332 331 329 327 325 324 323 322 323 324 326 327 326 324 324 324 324 323 321 320 319 318 314 312 309 305 304 303 304 304 304 304 304 304 305 307 309 312 314 315 316 316 315 313 311 309 306 305 305 307 313 319 321 321 322 322 322 323 324 324 324 324 324 324 323 323 324 324 323 323 323 323 323
336 336 337 336 337 337 336 336 335 335 334 333 332 332 330 329 327 325 324 324 323 324 327 327 326 325 324 323 323 325 323 321 320 319 315 312 310 306 305 304 304 304 305 306 307 308 310 313 315 317 317 318 318 317 317 316 313 311 308 306 305 306 308 311 314 316 316 318 320 321 323 324 324 324 324 324 324 323 323 324 323 322 323 323 322
336 336 337 336 336 337 336 336 335 335 335 334 333 332 331 330 329 327 325 325 325 325 327 328 327 326 323 322 322 324 324 323 321 320 317 313 312 310 308 307 308 309 311 312 313 315 316 317 318 318 319 319 318 318 317 316 315 313 310 307 305 305 306 308 312 315 315 316 317 317 319 320 321 324 324 324 324 322 322 324 323 321 322 322 321
335 336 336 337 336 337 337 336 336 336 335 334 333 333 332 331 330 329 327 326 326 326 327 328 327 324 322 322 321 322 323 324 323 321 319 315 314 314 313 313 314 315 316 317 317 318 318 319 319 319 319 319 319 318 317 316 316 314 312 309 306 308 312 315 317 319 318 317 317 316 316 315 316 319 320 322 324 322 321 322 321 320 321 321 319
334 335 335 336 336 336 336 336 336 335 335 335 334 334 332 332 331 330 329 327 326 326 327 328 327 324 323 322 322 321 322 324 325 323 321 318 316 317 317 317 317 319 319 319 319 319 319 320 320 320 320 320 319 319 318 316 316 315 313 311 308 312 318 319 319 319 319 319 319 319 319 319 318 317 316 318 320 319 318 318 318 318 317 316 315
333 334 334 335 335 335 335 335 336 335 336 335 335 335 333 332 332 331 330 329 328 327 327 328 327 325 324 323 323 323 321 323 325 325 322 320 319 319 320 320 320 321 321 321 320 319 319 320 320 320 320 320 320 319 318 317 316 315 315 314 312 315 318 318 319 319 319 319 319 320 320 319 319 318 318 317 316 314 312 312 313 313 312 311 309
329 331 331 331 332 332 334 335 335 334 334 335 335 335 335 333 332 332 331 331 330 327 327 328 327 326 324 325 327 325 323 322 324 325 324 323 321 320 321 321 322 322 322 322 321 320 320 320 321 321 320 320 320 320 318 317 317 316 316 316 316 317 317 317 318 318 319 319 318 318 319 319 318 319 319 318 317 315 313 314 315 314 312 309 305
326 328 328 327 329 329 332 334 335 334 334 334 334 335 335 333 332 333 332 332 331 329 329 328 328 328 326 326 329 328 326 323 323 325 325 324 322 321 322 322 323 323 323 322 321 321 320 321 321 321 320 320 320 320 319 317 317 317 317 317 317 317 317 317 318 318 318 317 317 317 319 320 319 319 319 319 318 318 317 317 317 315 312 309 307
324 326 327 325 326 328 330 333 335 335 334 334 333 334 335 334 332 332 332 333 332 331 330 329 329 328 328 329 330 329 327 325 323 325 326 325 323 322 322 323 323 323 323 323 322 322 321 321 321 321 321 320 320 320 319 318 317 317 317 317 317 317 317 317 318 318 317 316 317 319 320 320 320 319 319 319 318 318 318 318 316 315 312 312 311
325 325 325 325 325 328 328 331 334 334 334 333 332 333 334 334 332 331 332 332 332 332 332 331 330 329 329 330 330 329 329 326 325 325 325 326 325 323 323 323 323 324 324 324 323 323 322 322 321 321 321 320 320 320 319 318 318 318 317 317 317 317 317 317 317 317 315 316 319 319 320 320 320 319 318 318 318 318 318 318 317 316 315 314 313
324 322 321 323 324 327 327 330 333 331 330 331 331 333 333 333 333 331 332 332 331 332 332 332 331 330 329 330 330 329 329 327 326 326 326 326 326 323 323 323 324 324 324 324 324 324 323 323 322 322 321 320 320 319 318 318 318 318 318 318 317 317 316 316 316 315 314 315 318 319 319 320 319 319 318 318 318 318 318 318 317 316 315 315 312
318 317 319 321 321 323 326 328 329 327 327 328 329 330 332 332 332 332 331 332 331 331 332 332 331 331 330 330 330 329 330 328 327 326 326 326 326 325 323 324 324 324 324 325 324 324 324 323 323 322 320 319 319 318 318 317 318 318 318 318 316 314 314 315 314 313 312 314 316 315 317 319 318 318 318 318 318 318 318 317 317 316 315 313 308
315 315 317 319 319 318 320 322 323 325 326 326 325 324 328 330 331 332 331 331 331 331 331 331 332 331 330 330 330 330 330 329 328 327 327 327 327 326 324 324 324 325 325 324 324 323 323 323 322 322 320 319 318 317 316 317 317 317 317 316 314 312 312 312 311 310 310 311 312 311 313 315 317 317 317 317 317 317 317 315 314 314 313 309 304
314 315 315 317 317 316 316 316 320 325 326 325 324 321 323 327 329 330 330 330 330 330 330 330 331 331 331 331 330 330 330 329 328 328 328 327 327 327 325 324 324 325 325 324 323 322 322 323 322 322 321 319 318 316 315 316 316 316 315 312 310 310 310 309 307 307 307 308 309 309 309 309 311 312 312 313 314 314 314 314 314 312 307 303 301
314 314 314 315 316 315 315 315 319 323 322 323 324 322 320 319 324 327 329 329 330 330 330 329 329 329 330 331 331 330 330 330 329 329 329 328 327 328 327 324 324 325 325 324 324 322 322 322 322 321 321 319 318 316 314 314 316 314 311 309 308 308 307 306 306 305 305 306 306 306 306 305 304 304 305 306 306 308 309 310 310 307 303 303 303
315 314 314 314 314 314 315 314 316 317 319 322 324 324 322 317 317 321 324 328 330 330 330 329 330 331 330 330 330 330 330 330 330 329 329 328 328 328 328 326 324 325 326 325 325 324 322 322 321 321 321 319 318 316 313 312 314 312 308 307 307 306 305 305 304 304 304 304 303 303 302 302 301 300 301 301 301 301 301 302 300 301 305 307 307
315 315 315 314 314 314 314 314 314 314 317 321 324 324 325 324 320 316 318 325 328 328 329 328 328 330 330 329 330 330 330 330 330 329 329 329 328 328 328 327 325 325 326 325 325 324 323 322 321 321 320 319 319 317 312 309 310 309 306 306 305 305 304 304 303 303 303 302 302 301 300 300 300 299 300 299 299 298 297 297 296 296 302 306 307
315 315 315 314 315 314 314 314 313 314 314 317 322 324 324 326 325 321 322 327 328 327 327 328 328 327 328 329 329 329 330 330 330 329 329 329 328 328 328 328 327 325 326 326 325 324 323 322 320 320 320 319 319 318 312 307 307 307 305 305 304 304 303 303 303 302 302 302 301 301 300 300 300 299 299 298 297 297 296 296 296 295 298 301 304
315 315 315 315 315 314 314 314 313 314 313 314 319 322 321 322 323 324 326 330 332 329 325 326 327 327 329 329 328 329 329 329 329 329 329 328 329 328 327 328 327 326 326 326 325 324 323 322 321 320 319 320 320 318 314 308 305 306 305 304 303 303 303 302 302 302 302 302 301 301 300 300 299 298 298 298 297 297 296 295 296 295 295 297 300
315 315 315 314 314 314 313 313 313 313 313 313 314 316 316 316 320 323 325 326 329 327 323 325 325 326 330 327 325 328 329 328 328 328 328 328 329 328 328 328 328 328 327 326 325 324 323 322 321 320 320 321 321 319 316 309 304 305 305 303 303 302 302 302 302 302 301 301 301 300 300 299 298 298 297 297 297 296 296 295 295 294 294 295 296
315 315 315 315 314 314 313 313 313 313 313 313 313 314 314 314 317 319 321 321 322 320 320 325 324 323 327 323 322 327 327 327 329 328 328 329 329 329 328 328 328 328 327 326 326 325 324 323 322 321 320 321 322 320 317 312 304 304 305 302 302 302 301 302 302 301 301 301 301 300 299 298 297 297 297 297 296 296 295 295 295 294 294 293 293
315 315 315 315 314 314 314 313 313 313 312 313 313 313 313 314 314 315 316 316 316 314 314 320 321 318 320 322 326 329 327 327 329 327 328 329 328 328 328 328 328 328 328 326 325 326 325 324 322 321 320 321 322 320 318 314 306 303 305 303 302 302 301 302 302 301 301 301 300 299 298 297 296 296 296 296 296 295 295 295 294 294 294 293 293
315 315 314 314 315 314 314 314 313 313 313 313 313 313 314 313 314 313 313 313 313 313 311 314 317 315 318 327 331 331 329 327 326 326 328 330 329 328 327 328 328 328 328 326 325 326 325 324 323 321 321 321 322 321 318 316 308 303 305 304 302 302 301 302 301 301 301 300 300 299 298 297 296 296 296 296 295 295 295 294 294 294 294 293 293
315 315 315 314 315 314 314 314 313 313 313 313 312 313 313 313 313 312 312 312 311 312 311 313 315 313 320 330 333 330 328 325 323 325 328 328 328 329 327 326 328 328 328 327 326 326 325 324 323 322 322 321 321 321 318 317 310 303 304 304 302 302 301 301 301 301 301 300 300 299 297 296 296 295 295 295 295 295 294 294 294 293 293 293 292
316 316 315 315 315 314 314 314 314 314 313 313 313 312 313 312 313 312 311 312 311 312 311 312 313 312 318 328 330 327 324 324 324 326 326 324 324 328 328 325 326 328 329 328 327 326 325 324 323 321 321 321 321 321 318 317 311 304 304 304 302 301 301 300 301 301 301 300 299 299 297 296 295 295 295 295 295 294 294 294 293 293 292 292 292
318 317 316 316 315 315 315 315 314 314 313 314 313 313 313 312 312 312 312 312 312 312 312 312 312 312 316 321 323 323 322 322 325 326 324 322 324 328 328 326 326 327 328 329 327 326 324 323 322 320 321 321 321 321 318 316 312 305 303 303 301 300 300 299 300 300 301 300 299 299 297 296 295 295 295 294 294 294 293 293 293 292 292 292 291
319 318 317 316 316 315 315 315 314 314 314 314 314 314 313 313 312 312 312 312 312 312 312 312 311 312 314 317 320 324 323 321 323 325 324 324 326 328 327 326 326 326 327 328 327 326 324 322 321 320 321 321 321 321 319 317 313 306 303 302 300 299 299 299 300 300 301 301 299 299 298 296 295 295 295 294 294 293 293 293 292 292 292 292 291
318 318 318 317 317 316 315 315 315 314 314 314 314 314 313 313 312 312 312 312 312 312 313 312 311 312 313 316 322 326 324 323 324 325 324 326 328 326 324 324 324 325 326 327 326 325 324 322 321 320 321 321 320 320 318 317 314 307 302 301 299 298 298 299 300 301 301 301 300 299 297 296 295 295 294 294 293 293 293 292 292 292 291 291 291
318 318 318 318 317 317 316 316 315 315 314 314 314 314 313 313 312 311 311 311 312 312 312 312 312 313 313 316 321 323 325 326 325 325 325 326 326 323 322 321 322 324 325 326 326 325 324 322 322 322 322 321 319 319 318 316 315 309 302 300 299 298 298 299 301 301 301 301 300 299 297 296 295 294 294 294 293 293 293 292 292 292 291 291 290
318 317 318 318 318 318 317 317 316 315 315 314 314 314 313 313 312 312 311 312 312 312 312 312 312 314 314 315 317 320 324 326 325 326 326 325 324 322 321 321 321 323 324 326 326 325 324 322 321 322 322 321 320 319 317 315 315 312 304 300 300 298 299 301 301 300 300 300 300 299 297 296 295 294 294 293 293 293 292 292 292 291 291 291 290
318 318 317 317 317 317 317 317 316 315 315 314 314 314 313 313 313 312 312 312 312 312 313 313 313 314 314 316 317 320 322 324 326 328 327 325 324 323 321 320 321 324 325 326 326 325 324 322 322 322 321 321 320 319 318 316 315 313 305 301 302 301 302 302 300 299 299 299 299 298 297 296 295 294 294 293 293 293 292 292 291 291 291 290 290
318 318 318 317 317 317 317 316 315 315 314 314 314 313 313 313 313 313 312 312 312 312 313 312 313 314 314 315 317 319 322 325 327 328 327 326 325 323 321 320 321 323 324 325 325 324 323 323 322 322 321 321 320 319 319 317 315 314 308 302 303 303 303 303 301 300 299 298 298 297 296 296 295 294 294 293 293 292 292 292 291 291 290 290 290
318 318 318 318 317 316 317 316 315 315 314 314 314 314 313 312 313 313 312 312 311 311 312 312 312 314 316 316 315 318 324 327 327 327 327 325 324 322 320 319 321 322 322 323 324 324 323 323 323 322 320 320 320 319 319 317 315 315 310 304 302 302 301 301 301 300 299 298 298 297 297 296 295 294 294 293 292 292 292 291 291 290 290 290 289
318 318 318 318 318 317 316 316 315 315 315 314 314 314 313 312 312 312 312 311 310 310 311 311 312 313 317 317 316 319 325 327 327 326 326 324 323 321 320 321 322 321 320 320 321 323 323 323 322 320 317 318 319 319 318 317 315 314 310 305 303 302 300 300 299 298 298 297 297 297 296 296 294 294 293 293 292 292 291 291 290 290 290 289 289
318 318 318 318 318 318 317 316 316 315 314 314 314 313 312 312 311 311 311 310 310 310 311 311 311 314 316 316 317 321 324 326 326 325 324 323 323 322 322 322 322 321 320 318 318 320 321 321 321 318 317 318 319 318 317 316 314 313 310 305 304 303 300 299 298 297 297 296 296 297 296 295 294 294 293 292 292 291 291 290 290 290 289 289 289
318 318 318 318 318 318 318 317 317 316 315 315 314 314 313 311 311 311 310 310 309 309 310 311 311 313 315 315 317 320 323 324 323 322 321 322 323 323 322 321 320 319 319 317 317 318 318 320 320 319 318 318 318 317 317 316 314 312 309 305 304 303 300 299 298 297 296 295 295 296 296 295 293 293 293 292 291 291 290 290 290 289 289 289 289
Wind_Speed
13 13 13 11 11 11 11 12 12 11 10 11 11 11 10 9 10 11 10 10 10 10 10 10 10 10 10 10 11 11 10 10 11 12 12 13 13 13 13 13 14 14 14 15 15 15 18 18 16 14 12 13 14 14 14 14 14 13 13 13 13 13 14 15 17 20 20 18 16 16 17 17 16 13 11 10 10 11 11 12 13 14 16 15 13
14 14 13 11 11 12 12 13 13 11 10 10 11 11 10 9 9 10 10 10 10 9 9 9 9 10 11 10 10 10 10 10 11 11 12 12 13 13 13 13 13 14 15 15 15 15 18 18 15 14 13 14 14 14 14 14 13 13 12 12 12 13 14 15 16 17 18 16 15 16 18 19 19 18 16 13 11 11 10 11 12 14 15 13 12
15 14 13 12 11 12 13 14 13 10 10 10 10 10 10 10 9 9 10 9 9 9 8 8 9 11 12 10 10 10 10 11 11 11 11 12 13 13 12 12 12 13 15 15 16 16 16 15 14 13 13 14 13 13 13 13 13 12 12 12 12 13 13 14 15 15 16 16 16 17 18 19 19 19 18 17 16 14 13 14 14 15 16 14 13
15 14 13 11 11 12 13 13 12 10 9 10 10 10 10 9 9 9 9 9 8 8 7 7 9 11 12 11 11 10 10 11 11 11 12 12 12 12 12 12 12 13 15 15 17 17 15 13 11 12 13 13 14 14 14 14 14 14 14 14 14 14 14 15 15 13 15 17 18 19 19 19 19 19 19 19 17 16 16 17 17 18 17 15 15
14 14 13 12 11 12 12 12 12 10 9 10 11 10 9 9 8 8 8 8 8 8 7 7 9 11 12 12 11 11 11 12 11 11 12 12 12 12 12 12 13 14 15 16 18 17 14 11 11 12 13 14 15 16 16 17 17 18 18 17 17 17 16 16 16 15 16 18 20 21 19 18 19 20 20 18 17 17 17 18 18 18 17 16 16
13 13 13 13 11 11 12 11 12 10 9 10 11 10 9 8 8 8 7 7 8 8 7 7 9 11 12 12 11 12 12 12 12 12 12 12 12 12 12 13 14 15 16 17 18 17 13 12 12 13 15 16 17 17 18 19 19 19 19 19 19 18 17 17 18 19 19 20 21 20 19 17 18 20 20 19 18 18 18 18 18 18 17 17 18
13 12 12 13 12 12 11 11 11 9 8 9 9 9 8 7 7 7 6 7 9 8 7 8 9 11 12 12 12 12 12 13 12 12 12 12 12 12 12 13 14 15 16 17 16 15 13 13 13 15 16 16 17 18 19 19 19 19 19 20 20 19 18 18 19 22 22 22 22 19 17 17 18 19 19 20 19 19 19 19 19 18 18 18 18
13 13 13 13 12 12 11 11 11 9 8 8 8 8 7 6 6 5 6 8 9 9 8 8 9 11 12 12 12 12 12 12 12 12 11 11 11 11 12 13 15 15 16 16 15 14 14 13 14 15 16 17 18 18 19 19 20 20 20 19 19 18 18 19 19 21 21 19 19 17 16 17 17 18 19 19 19 19 19 19 19 19 19 19 18
13 12 12 12 12 13 12 12 11 10 9 9 8 8 7 6 5 5 6 8 10 9 8 9 10 10 10 11 12 12 13 12 12 12 11 11 10 10 12 13 14 15 15 16 15 15 15 15 16 16 17 18 19 19 19 19 20 20 19 18 16 16 18 21 18 17 19 17 17 17 17 17 16 17 18 21 20 19 19 19 19 19 20 19 19
12 11 12 11 11 13 12 12 11 10 9 9 9 8 8 7 5 5 7 9 10 9 8 9 10 9 9 9 11 12 12 12 11 11 11 11 9 10 12 12 14 14 15 15 15 15 15 16 16 17 18 18 19 19 19 19 20 20 19 17 15 16 19 20 18 17 19 18 18 19 18 18 17 17 18 20 21 21 21 21 20 20 20 20 21
13 12 12 11 12 12 12 12 11 10 10 9 8 8 8 8 7 6 7 8 10 10 9 9 9 8 9 8 9 10 11 11 11 10 11 11 10 10 11 11 13 14 14 15 15 15 15 16 17 17 18 18 18 18 19 19 19 20 19 17 16 18 19 19 18 17 18 18 19 19 18 18 18 19 18 19 21 22 23 22 21 21 21 21 21
13 13 13 12 13 13 12 12 11 10 10 9 8 9 9 8 7 7 7 8 9 9 9 8 8 8 8 8 9 9 10 10 10 10 10 10 10 10 11 11 12 13 14 15 15 15 16 17 17 17 17 17 18 18 18 19 19 19 19 17 17 20 19 18 18 16 18 18 19 19 19 19 18 19 19 19 20 21 22 22 22 22 22 22 22
13 13 13 13 13 13 13 12 12 11 10 8 8 9 9 9 8 7 7 8 9 9 8 7 6 7 8 9 9 9 10 10 10 9 9 10 10 10 11 11 12 13 14 14 15 16 16 17 17 17 17 17 18 18 18 18 19 19 18 16 18 21 18 17 18 18 19 19 19 19 20 20 19 19 19 19 20 19 20 21 21 22 24 23 23
14 14 13 14 14 14 13 13 12 11 10 9 8 9 8 9 8 8 7 8 9 8 8 6 5 6 8 8 9 9 10 10 10 9 9 9 10 10 10 11 13 14 14 15 15 15 16 16 16 16 17 17 18 18 18 18 18 18 17 16 17 20 19 17 18 19 19 19 20 20 21 21 19 18 18 18 18 19 20 20 20 21 22 22 21
14 14 14 13 14 14 14 13 13 12 11 9 9 9 8 9 9 8 8 8 8 8 8 6 5 6 7 8 8 9 9 10 10 9 9 9 10 10 10 12 13 14 14 15 15 15 15 15 16 17 17 18 18 18 18 18 17 17 17 16 15 18 20 18 16 16 17 18 19 20 21 21 18 17 17 17 17 19 19 19 19 19 19 19 18
14 15 14 12 14 15 14 13 13 12 12 11 10 10 9 9 9 9 8 7 7 8 8 6 5 5 6 7 7 7 8 9 9 9 8 9 10 10 11 12 13 14 14 14 15 15 15 15 16 17 17 17 18 17 17 17 16 16 16 15 15 16 19 19 15 14 14 15 17 18 19 19 18 17 17 16 17 17 18 18 17 17 17 17 17
14 16 14 14 14 15 14 13 13 12 12 11 10 10 10 9 9 9 9 8 7 7 7 6 5 5 5 6 6 6 7 8 9 8 8 9 9 10 11 12 13 14 14 15 15 15 15 15 16 17 17 17 17 17 16 16 15 15 15 14 14 15 17 18 17 16 16 16 15 15 16 17 18 18 16 16 16 15 15 16 15 15 16 15 13
15 16 15 14 14 14 14 14 13 13 12 11 11 11 11 10 9 9 9 9 8 7 7 6 6 5 5 5 5 5 5 7 8 8 8 8 9 10 11 12 13 14 14 14 14 14 15 15 16 16 16 16 16 16 16 15 15 15 14 14 13 15 18 19 20 19 17 17 15 14 14 14 16 17 15 16 17 14 14 15 14 13 14 14 11
16 16 15 15 14 14 14 14 14 13 12 12 12 11 11 11 10 10 9 9 8 8 8 7 6 5 4 4 4 4 4 5 6 7 7 8 8 9 10 11 12 12 12 13 13 13 14 15 15 15 15 14 14 14 15 15 15 14 14 13 13 16 18 18 18 16 15 16 15 15 14 12 13 14 14 16 17 14 13 13 13 11 12 13 11
20 18 18 17 16 16 15 15 14 14 13 13 12 12 12 12 12 10 10 9 9 9 8 8 7 5 4 4 4 4 4 4 5 6 6 7 8 8 9 10 10 11 11 11 12 12 13 13 13 13 13 12 13 13 13 14 14 14 13 12 12 14 15 15 15 15 16 17 16 16 15 14 13 13 12 14 14 12 11 9 9 9 7 7 8
24 24 23 21 20 19 17 16 15 14 14 14 13 13 13 13 12 12 11 11 11 10 10 10 8 7 5 4 3 4 4 4 4 5 6 6 7 7 7 8 9 10 10 10 10 11 11 11 11 11 11 10 11 11 12 12 13 13 12 11 10 11 14 14 16 17 17 17 17 16 15 14 14 15 15 14 13 11 8 7 7 7 6 6 9
25 26 26 24 23 22 19 17 16 16 16 15 14 14 13 13 13 13 13 12 12 12 11 11 10 9 7 5 4 4 5 5 4 4 4 5 6 7 7 8 8 9 9 9 9 9 9 9 9 9 9 9 9 10 11 11 12 12 11 10 10 12 15 16 17 18 18 18 19 17 16 16 17 17 17 16 16 14 12 13 13 13 12 12 16
25 26 26 25 24 24 23 19 17 17 17 17 16 15 13 13 14 14 14 14 14 13 13 13 12 10 8 7 5 4 6 6 5 4 4 5 6 7 6 7 7 8 8 8 8 8 8 8 8 8 8 7 8 8 9 10 11 11 10 10 11 13 16 18 20 20 20 20 21 19 17 18 17 17 17 17 17 16 16 17 17 17 16 15 17
23 27 27 26 25 24 24 22 19 19 19 18 17 15 14 14 14 14 14 14 15 15 15 14 13 12 10 9 8 7 8 6 6 6 6 6 7 8 7 7 7 7 7 6 7 7 7 7 6 6 6 6 6 7 8 8 9 9 9 10 11 13 15 18 19 21 21 20 21 20 18 18 17 17 17 16 16 16 15 15 13 12 11 13 16
20 24 28 27 27 25 24 22 20 21 23 22 20 17 15 15 15 15 15 15 15 16 16 15 14 14 12 11 11 11 11 8 7 8 8 7 7 9 9 8 8 7 6 6 6 6 5 5 5 5 4 4 4 5 6 7 8 8 9 10 10 11 14 16 17 19 20 20 22 21 20 18 17 16 15 15 15 14 15 14 12 10 10 13 16
20 23 27 28 28 27 25 22 22 25 25 25 23 20 18 16 16 17 16 15 16 18 17 17 16 15 15 14 13 12 12 11 9 9 10 9 9 10 10 9 8 8 7 6 6 5 5 3 3 2 3 3 2 3 4 5 7 7 8 9 10 10 12 15 16 17 19 20 22 22 22 19 17 16 15 14 14 13 14 13 12 11 12 13 14
24 23 24 26 28 30 28 24 25 26 24 24 25 25 23 19 17 18 18 16 16 18 19 19 18 17 17 15 14 14 13 12 10 11 11 10 11 11 11 11 10 9 8 7 6 6 5 3 2 1 3 3 2 2 3 5 6 7 7 7 8 10 12 14 16 18 19 19 19 18 21 21 20 18 16 14 13 12 10 9 9 10 11 11 11
26 25 23 23 25 28 27 26 25 23 21 23 25 27 27 25 22 20 20 19 18 18 18 19 20 19 19 18 16 15 15 14 12 11 11 11 12 13 13 12 12 11 9 7 6 6 6 4 2 0 2 3 2 1 3 6 7 7 7 7 9 12 15 15 17 19 19 18 16 14 16 19 20 19 17 15 14 11 6 6 9 10 7 8 10
28 27 25 23 25 26 25 26 26 21 19 21 23 25 26 28 28 25 22 22 21 20 20 20 21 21 20 20 19 17 16 16 14 13 12 12 12 14 15 15 14 13 10 8 7 7 5 4 2 1 2 2 3 0 4 5 7 8 7 9 12 15 17 18 18 18 19 18 15 12 11 12 15 14 13 13 12 10 7 8 10 7 6 8 8
28 27 27 26 26 26 24 25 27 25 22 21 22 23 24 27 29 28 27 24 22 21 22 21 21 22 22 22 21 19 17 16 16 15 15 14 14 15 16 16 16 14 12 10 9 7 5 3 2 3 3 3 3 1 3 5 7 8 9 12 16 18 19 20 19 18 18 17 15 13 11 9 7 7 7 7 7 7 8 8 6 5 8 9 9
28 26 26 27 26 25 25 25 26 27 24 21 21 20 20 24 27 28 28 26 24 23 22 22 21 20 21 22 22 22 21 19 17 17 17 17 17 17 17 18 18 16 14 13 12 10 7 4 3 4 4 4 4 1 2 5 8 9 12 15 18 19 19 19 19 18 17 16 15 13 12 10 7 4 4 4 4 4 4 4 2 5 9 11 11
28 26 25 27 27 25 25 25 25 25 24 21 19 19 18 19 22 26 26 25 25 26 24 23 22 21 21 22 22 23 24 22 20 18 18 18 18 18 18 19 19 18 17 16 15 12 9 6 5 5 6 6 4 2 2 6 10 12 14 17 18 19 19 18 17 17 16 15 14 13 11 9 7 5 3 3 4 4 3 2 2 3 8 10 11
27 26 27 27 26 25 25 25 25 24 24 24 20 20 20 17 17 20 24 27 27 27 26 24 23 23 23 23 22 22 24 23 22 20 20 20 20 19 18 19 20 19 18 18 16 13 11 8 6 6 7 6 6 3 2 7 11 14 16 18 18 19 19 18 17 15 14 14 12 11 9 7 5 4 4 4 4 4 3 3 4 4 6 9 10
26 27 28 27 26 25 25 25 26 25 25 26 24 22 22 22 19 17 21 28 31 30 28 25 25 25 24 25 25 24 24 23 24 23 22 23 23 22 20 19 21 22 20 20 17 15 14 11 8 7 8 7 7 5 3 7 12 15 17 18 18 18 17 16 15 14 13 12 10 8 7 5 4 3 3 4 3 4 4 4 5 5 6 7 8
26 26 27 27 27 25 24 25 26 25 25 26 26 27 26 25 23 18 18 25 31 32 28 26 28 28 25 25 26 26 25 24 25 23 23 25 25 23 23 21 22 25 22 20 18 17 16 14 11 8 9 9 9 7 4 8 12 16 18 18 18 17 16 15 14 12 11 10 8 7 5 3 3 3 2 3 3 4 4 5 5 6 6 5 5
27 26 26 27 28 26 25 25 25 25 25 25 26 28 28 27 26 23 20 21 27 31 28 25 28 30 29 27 26 26 26 25 26 25 23 26 26 24 24 23 24 26 24 20 19 19 18 17 14 11 10 10 12 11 7 8 13 16 18 18 17 17 16 14 12 11 10 8 7 5 4 2 1 1 2 3 3 4 4 5 5 6 6 6 5
27 27 27 27 28 28 27 26 25 25 26 26 26 28 29 29 29 28 27 27 28 31 30 27 28 30 30 30 29 29 28 25 27 27 26 27 27 25 24 24 25 27 27 23 21 21 20 19 17 15 13 12 14 15 11 9 13 16 17 18 17 17 15 13 12 10 8 7 6 4 3 2 1 1 2 3 4 4 5 5 5 6 6 6 6
27 27 27 28 28 29 29 27 26 26 26 27 28 28 29 29 30 29 30 32 32 31 31 30 30 30 30 31 32 33 29 26 28 28 28 28 27 27 25 25 26 28 29 27 24 23 22 22 19 16 15 15 15 16 15 11 12 16 17 18 17 16 15 13 11 10 8 7 5 4 3 2 2 2 3 4 4 4 5 5 5 6 6 6 6
25 26 27 28 28 30 31 29 27 27 27 28 29 29 29 29 30 30 32 33 32 31 31 31 32 32 31 31 32 32 28 26 29 30 29 28 28 29 28 27 27 29 31 29 27 26 24 24 22 19 18 18 17 17 17 13 12 17 19 18 18 16 15 13 11 9 8 7 6 5 4 3 3 3 4 4 5 5 5 6 6 6 6 6 6
23 25 27 29 29 31 32 31 30 29 28 29 30 30 30 31 31 32 33 32 30 30 32 32 33 33 33 33 33 32 28 27 31 32 30 29 29 30 29 28 29 31 34 33 30 30 27 25 24 22 20 21 20 19 18 16 13 17 19 18 18 16 15 13 11 10 9 8 7 6 5 4 4 4 5 5 6 6 6 6 6 6 6 6 6
25 25 27 29 30 32 33 32 31 31 31 30 31 32 32 32 33 33 33 32 30 31 33 32 34 34 33 34 35 33 31 30 33 33 33 31 29 31 30 29 30 32 38 38 33 32 29 26 25 23 22 23 23 22 21 19 15 17 20 19 18 17 15 14 13 12 10 9 8 7 6 6 6 6 6 6 6 6 6 6 6 6 6 6 6
28 28 27 28 30 32 33 33 33 33 33 32 32 32 32 32 32 32 33 32 31 33 32 32 33 34 34 35 35 35 33 33 34 34 33 31 30 32 30 30 30 32 38 39 34 32 30 27 26 25 24 25 25 24 25 22 17 19 21 20 19 18 17 16 14 13 12 10 10 9 8 8 8 8 7 7 7 7 7 6 6 6 6 7 7
30 30 30 29 30 32 33 34 35 35 35 35 34 32 32 32 32 32 33 32 33 33 32 32 33 33 33 34 35 35 35 34 34 34 33 31 31 31 28 29 31 31 35 38 36 34 29 27 28 27 26 27 27 26 26 23 19 19 21 21 20 19 17 18 17 14 14 13 12 11 10 10 9 9 9 8 8 8 7 7 7 7 7 7 7
31 32 32 31 32 32 33 34 34 35 35 36 35 33 32 32 33 33 34 35 34 33 31 32 32 30 30 33 36 36 36 36 35 35 35 33 30 28 28 29 31 31 32 35 37 36 31 28 29 29 28 28 29 29 26 25 22 22 22 18 17 17 15 17 19 17 15 15 14 13 12 11 10 10 10 9 9 9 8 8 7 7 8 8 8
27 30 32 33 33 33 33 34 34 35 36 37 36 34 34 34 35 36 37 37 36 33 32 33 32 29 30 33 36 37 38 37 35 35 36 35 31 29 30 30 31 33 34 34 36 37 33 29 28 30 30 28 29 30 29 28 26 23 22 17 13 14 14 16 18 17 17 16 15 14 13 12 12 11 11 10 10 10 9 9 9 8 8 8 8
21 24 27 31 33 33 34 34 35 36 37 37 37 36 36 36 36 37 38 39 37 36 36 35 33 32 31 32 34 35 37 37 36 35 36 35 32 31 31 31 31 33 37 37 36 37 34 31 30 31 30 28 28 32 32 30 29 25 25 23 16 14 17 17 16 15 17 18 16 14 14 14 13 13 12 11 11 11 11 10 10 9 9 9 9
19 19 22 26 30 33 34 34 35 37 38 38 39 38 38 38 38 38 38 37 37 37 36 35 34 32 31 31 33 35 36 37 37 37 35 34 33 32 32 33 32 30 34 36 36 36 33 31 33 32 30 28 30 35 33 29 29 27 28 28 19 14 15 15 16 14 14 15 15 14 14 14 14 14 13 13 13 12 12 11 10 10 10 10 10
20 21 21 23 25 29 32 33 34 36 38 39 39 40 39 39 38 38 37 36 36 36 36 35 34 33 31 30 33 34 36 38 38 37 36 34 33 33 34 34 32 29 29 31 34 35 32 32 33 31 30 31 35 38 34 29 29 27 28 29 23 17 14 13 15 13 10 11 13 13 14 14 15 15 15 14 14 13 12 11 11 10 10 11 11
19 20 21 22 23 26 28 30 32 34 36 38 39 40 39 39 39 39 37 36 36 35 36 37 35 34 33 31 32 35 38 39 38 38 37 35 34 34 34 34 32 31 30 31 33 34 33 32 32 32 33 35 39 38 32 29 27 26 28 30 28 23 17 14 15 14 12 12 11 12 12 12 14 15 15 15 14 14 13 12 11 11 11 12 12
12 14 16 19 21 24 27 29 31 33 35 36 38 39 38 38 39 39 36 35 35 35 37 38 36 35 34 32 33 37 39 40 40 39 38 36 36 36 35 34 32 33 34 35 35 35 35 33 33 34 33 36 40 37 31 28 25 25 28 30 30 26 21 17 16 16 15 14 12 12 11 11 12 13 14 14 14 14 13 12 11 11 12 12 13
10 12 14 16 19 22 25 28 30 32 33 35 36 36 36 37 37 37 35 34 35 36 38 39 37 35 35 34 34 36 39 40 40 39 38 38 38 36 34 32 31 32 34 36 37 36 36 36 36 35 32 35 38 35 32 29 25 25 28 29 29 26 21 18 16 16 16 15 15 14 12 10 10 13 13 13 14 14 13 12 11 12 12 13 13
Wind_Direction
153 151 148 146 134 129 129 131 131 129 126 123 120 117 112 111 106 97 88 79 69 59 57 56 56 59 61 65 70 73 80 87 97 103 109 111 110 109 107 101 93 93 95 96 96 96 100 97 94 97 105 107 103 104 102 99 96 93 91 88 87 83 80 75 87 97 92 87 82 78 80 80 80 82 82 79 76 71 66 66 66 65 63 60 60
154 153 152 147 136 128 132 141 137 135 133 128 124 120 116 114 105 96 88 79 69 60 56 57 59 56 53 60 70 74 81 87 95 104 107 109 108 107 106 102 96 95 97 97 97 100 108 109 109 111 112 107 102 102 102 101 99 96 94 92 90 87 84 82 92 100 96 91 84 81 81 80 78 77 79 81 79 76 71 67 67 68 65 64 65
156 157 158 149 135 127 133 144 142 141 138 134 128 121 121 115 109 101 91 82 73 67 61 61 58 50 47 59 74 77 83 86 92 101 106 108 107 106 108 105 98 95 95 96 97 96 103 111 117 117 110 106 104 102 102 102 100 98 94 93 92 91 88 89 95 96 95 91 85 84 82 79 77 76 77 79 80 78 77 73 70 70 68 69 70
158 158 158 150 139 132 135 144 148 147 141 141 136 128 129 124 117 104 92 83 76 74 68 65 57 49 52 67 80 81 82 84 88 97 104 109 110 110 110 107 100 95 94 94 99 97 95 102 109 111 108 105 102 99 99 98 97 96 95 95 95 95 94 96 98 93 92 91 87 82 78 76 74 73 74 76 78 78 77 74 70 69 69 70 71
159 158 156 152 145 139 140 145 149 149 148 155 154 146 142 135 121 103 89 77 79 84 75 66 61 55 62 75 84 84 82 80 84 92 100 107 110 112 110 107 101 97 95 95 103 105 100 103 108 109 107 103 100 98 97 95 94 93 93 94 93 93 95 99 99 92 89 88 84 79 74 72 72 70 70 75 77 77 76 73 70 69 69 69 69
160 158 156 157 152 147 147 146 146 147 150 158 163 159 151 140 124 109 90 75 87 92 83 74 65 63 70 80 85 85 82 79 81 87 95 102 105 108 108 105 100 97 96 96 101 105 105 108 110 107 104 101 99 96 94 93 91 91 91 92 91 91 95 100 100 94 88 82 75 73 72 68 71 71 70 74 76 77 77 73 70 70 70 70 68
165 160 158 162 159 154 152 147 144 144 142 148 160 160 153 145 129 117 90 80 95 97 90 80 69 69 75 82 86 87 85 81 81 84 91 97 103 106 107 102 99 100 100 104 110 114 114 114 111 105 102 99 95 92 90 90 89 90 91 92 93 96 100 100 99 94 83 75 69 66 70 69 71 72 72 74 74 76 74 71 70 69 69 69 68
170 169 167 165 161 156 153 150 145 141 140 140 151 156 153 148 132 113 82 87 102 101 95 82 71 73 79 84 86 88 87 85 83 85 89 94 100 105 106 100 99 104 104 108 118 120 118 115 108 101 98 96 94 92 90 89 89 90 91 94 97 102 101 93 89 88 79 75 75 70 70 70 71 71 73 74 74 75 74 72 72 69 67 67 67
171 174 171 165 161 157 154 153 148 145 144 139 141 148 150 145 133 108 83 95 105 103 98 83 73 75 80 84 86 87 87 88 88 88 89 93 98 104 106 100 100 104 103 102 108 116 115 109 103 98 97 95 94 92 91 91 90 91 91 93 97 99 92 84 78 76 75 76 78 75 73 71 71 71 72 75 72 72 73 73 72 69 67 66 66
168 173 170 167 165 159 157 154 152 150 146 142 137 137 141 138 131 110 93 101 106 107 103 88 77 74 76 80 85 86 86 87 89 93 93 95 98 102 106 103 102 104 105 102 104 110 110 106 103 99 96 94 93 93 92 92 91 90 89 88 92 90 86 86 80 71 72 73 72 71 71 70 70 69 71 73 68 66 67 66 67 68 67 66 66
169 173 172 174 170 162 161 157 153 151 148 148 137 133 134 133 127 107 100 103 107 112 109 99 85 75 72 74 82 85 86 86 87 93 97 99 97 100 105 104 106 108 106 105 105 106 107 107 104 99 95 94 93 93 92 90 89 88 87 86 87 86 87 87 81 77 77 73 72 71 68 68 66 65 68 66 63 63 62 60 61 65 66 65 64
172 174 179 179 173 169 167 160 155 152 152 152 138 137 134 128 123 109 104 104 108 115 115 108 92 78 76 74 78 83 84 84 85 91 97 100 99 100 104 102 105 109 108 108 109 107 107 106 104 101 99 97 94 91 90 88 87 85 84 84 84 84 85 85 82 81 80 75 74 74 72 72 67 64 67 63 62 63 59 58 61 63 63 62 61
175 179 186 181 177 176 171 164 159 157 157 157 145 142 137 128 123 115 110 109 115 120 122 116 99 84 81 79 79 82 82 82 82 87 95 100 100 100 103 102 99 102 104 106 108 110 109 107 106 104 100 96 93 90 87 85 84 83 80 79 83 84 81 83 88 87 83 82 79 78 77 76 71 67 67 64 63 62 59 61 63 61 59 60 60
179 183 189 184 182 180 177 170 163 163 163 163 155 147 141 132 131 128 119 118 124 128 130 121 106 94 87 85 84 83 81 81 81 85 94 99 100 100 102 102 99 102 104 105 106 108 109 108 106 102 98 94 91 88 85 83 82 82 80 76 82 87 83 79 85 88 86 86 85 82 78 75 72 68 68 66 65 65 65 66 66 63 62 62 59
186 189 190 186 186 184 185 178 168 170 170 170 162 153 150 145 144 140 129 126 131 135 132 122 110 101 98 93 89 86 80 80 81 85 95 100 103 103 104 103 105 107 108 108 108 107 106 105 103 100 96 93 90 88 85 84 83 82 82 79 81 91 94 89 83 84 85 87 90 85 78 78 77 73 71 70 70 71 72 72 70 68 68 66 61
193 194 190 191 192 189 189 185 178 177 175 176 171 162 160 157 155 150 142 138 143 142 136 129 118 107 106 101 98 92 83 82 83 86 96 103 107 108 109 109 110 111 111 111 109 108 106 104 101 98 94 91 88 86 85 83 83 83 83 83 84 91 97 99 96 92 93 96 97 92 87 85 83 80 78 75 76 76 77 76 74 73 69 67 66
198 196 192 197 198 193 191 191 189 185 182 181 180 173 168 166 165 162 155 154 158 153 147 141 126 121 119 110 107 99 88 85 84 87 94 103 108 110 111 112 113 112 112 111 110 108 106 102 98 96 92 89 85 82 81 80 81 82 84 85 85 89 95 99 98 94 95 97 97 100 101 98 92 86 84 83 81 80 81 79 77 77 73 70 71
198 198 196 200 200 199 196 197 196 192 190 190 190 183 177 176 174 174 170 167 168 164 162 158 146 145 136 118 115 109 96 89 86 88 95 103 106 108 110 111 112 112 112 111 110 108 105 101 98 94 90 85 81 77 75 77 79 81 85 86 88 92 94 91 86 82 83 84 85 94 104 111 104 93 94 95 86 84 88 85 81 82 80 71 64
194 198 201 202 202 201 200 202 199 196 197 199 200 193 187 185 180 183 185 179 177 179 176 173 172 168 149 129 129 128 117 103 96 95 101 109 109 109 111 113 115 114 114 113 111 110 107 104 99 93 88 81 76 72 70 74 79 83 86 89 96 94 88 86 85 85 82 78 78 81 84 92 95 89 99 104 93 92 101 98 91 90 88 73 55
193 197 202 203 202 202 203 206 201 199 203 205 205 202 200 195 189 187 194 195 190 193 189 186 190 186 174 161 151 145 143 129 117 109 112 120 119 116 116 119 120 119 118 116 115 114 112 108 102 95 88 81 74 70 69 74 80 86 89 94 104 98 92 93 91 88 81 79 81 81 78 76 78 76 84 97 94 93 104 107 100 91 86 70 43
196 197 202 202 202 202 200 205 204 203 207 208 209 210 208 204 201 195 198 205 202 202 200 197 199 198 193 187 181 170 167 154 139 130 127 131 132 126 125 128 127 127 124 121 121 120 119 114 107 99 90 82 74 70 68 74 82 86 90 98 103 96 95 98 95 92 87 86 84 80 79 75 76 76 74 82 86 85 87 84 79 73 68 58 43
201 203 205 203 205 205 199 201 205 207 210 211 212 213 211 208 211 207 204 208 208 208 209 205 200 201 201 194 202 202 191 176 166 162 148 143 144 140 138 139 137 135 131 126 126 126 127 122 112 103 92 84 74 70 69 76 85 87 89 93 92 89 92 96 98 99 96 94 89 84 81 76 75 76 76 77 79 78 76 74 73 74 76 62 45
207 208 210 208 209 209 204 200 204 209 212 213 216 216 212 210 214 215 212 212 212 211 211 211 206 202 201 195 201 213 211 189 175 182 173 161 153 152 153 149 146 143 140 135 131 132 132 128 119 104 94 85 74 69 70 78 90 95 94 90 88 89 96 100 102 101 100 98 96 94 88 80 76 74 74 72 70 72 74 77 77 76 75 55 37
210 211 213 213 212 212 209 204 204 210 211 211 213 216 216 213 215 218 218 217 217 217 214 213 211 205 201 201 205 211 220 203 177 190 192 182 170 163 167 164 158 154 152 148 141 141 141 136 124 105 93 84 75 74 75 84 97 104 102 97 92 93 101 106 106 106 106 104 100 98 92 85 79 74 73 68 63 65 68 69 65 66 64 39 28
211 214 215 215 214 214 213 208 206 211 212 209 208 212 218 218 217 219 222 223 221 221 218 215 213 209 206 207 212 215 227 223 188 196 204 195 187 177 178 180 177 171 165 165 156 148 147 139 121 104 87 69 71 85 89 97 108 113 108 105 102 99 106 111 111 112 112 109 105 102 96 89 84 78 75 72 68 66 61 50 39 46 39 19 19
216 218 216 218 217 216 217 212 210 215 217 214 210 208 212 216 217 220 223 225 227 225 223 221 217 212 211 212 217 219 231 235 206 199 209 204 196 189 188 191 191 187 179 176 170 160 158 150 128 98 50 42 73 99 104 114 122 122 116 114 115 113 115 117 119 119 118 116 113 110 105 99 92 86 80 77 74 70 66 58 43 33 11 358 5
222 224 219 219 219 219 219 217 217 219 221 221 218 212 209 209 212 220 223 224 229 229 227 226 222 217 216 216 220 221 227 236 220 204 211 210 204 199 195 195 197 197 191 187 183 176 171 169 164 82 28 46 92 115 124 138 139 134 130 126 126 129 129 128 126 124 125 124 120 115 114 114 106 98 92 85 79 71 74 81 52 13 350 351 358
226 228 226 222 221 222 221 222 223 221 220 223 226 222 216 214 216 219 222 224 226 229 230 229 226 222 220 219 220 223 225 234 232 212 205 206 209 209 202 199 201 202 198 193 187 181 178 178 182 41 32 47 52 132 157 156 151 142 139 136 134 137 136 133 131 129 131 131 127 117 119 124 120 114 108 99 95 85 85 85 47 13 0 16 14
229 231 232 227 226 227 225 226 226 223 222 224 230 231 227 225 224 222 220 224 227 230 234 233 232 228 224 223 221 224 226 231 234 222 210 203 208 217 210 204 204 203 202 199 191 186 186 189 207 291 348 12 5 131 175 169 156 143 142 141 138 139 137 135 134 132 132 134 133 125 122 129 128 126 122 116 115 105 91 86 65 31 7 20 19
235 233 233 231 231 233 230 228 227 227 226 225 229 233 233 231 229 226 221 221 223 226 231 234 237 235 231 228 223 224 228 230 232 230 228 217 213 220 216 210 208 204 204 209 211 207 203 198 232 283 290 317 344 44 181 179 162 147 145 144 139 138 137 135 136 134 133 134 136 134 131 135 132 124 123 125 131 115 89 91 89 41 15 27 35
238 236 233 233 235 235 232 230 229 228 226 222 222 226 233 234 232 230 224 219 217 220 228 232 233 233 234 233 226 224 229 233 235 233 234 228 221 222 219 214 211 206 205 214 222 224 224 221 237 265 270 289 321 357 171 172 166 154 147 145 140 138 138 137 137 135 135 136 136 138 137 140 141 123 109 107 108 106 88 81 72 47 43 52 55
237 238 236 235 235 235 234 233 233 232 229 226 224 224 229 235 235 233 226 222 220 217 222 228 226 227 233 237 231 225 228 235 239 235 231 229 225 224 223 220 215 206 204 214 222 223 227 225 220 241 255 270 297 320 153 159 161 156 149 147 143 141 140 139 139 138 139 141 141 141 140 139 135 122 99 74 66 71 66 35 2 31 52 59 58
237 238 238 238 237 236 235 235 235 235 234 233 233 231 230 230 233 233 225 226 230 225 220 222 224 225 229 232 230 227 229 235 239 236 232 230 226 225 227 227 220 211 206 212 217 221 228 225 215 234 245 254 282 289 158 154 159 157 153 151 149 147 145 144 144 145 145 144 143 139 135 130 118 101 71 52 48 47 27 14 8 8 37 56 59
238 237 237 239 239 239 238 237 236 236 236 235 233 234 233 230 229 230 225 225 231 233 227 222 220 221 224 227 228 229 230 233 237 236 232 230 227 225 229 230 222 215 209 208 213 222 229 224 214 230 237 240 266 267 173 162 169 164 160 157 153 152 150 150 150 148 147 143 139 134 127 119 98 76 57 41 24 20 8 4 6 2 16 41 56
240 238 237 238 240 240 239 239 238 237 237 235 234 236 237 235 231 229 228 225 229 234 233 228 224 220 221 227 228 229 230 231 233 232 231 231 229 227 228 230 225 220 214 210 215 224 226 220 213 223 233 239 255 253 201 172 179 173 165 161 158 157 156 156 154 149 148 142 137 132 122 112 89 63 35 17 5 3 1 359 358 354 356 5 26
242 240 238 236 238 238 238 238 239 238 238 236 234 237 238 237 235 232 234 232 233 237 236 233 232 226 223 227 228 228 231 232 229 229 230 231 231 230 228 229 230 226 220 216 219 226 227 218 211 216 230 242 247 245 226 185 186 183 171 167 165 164 163 160 158 153 150 144 138 137 127 117 101 40 358 350 351 351 351 349 345 343 341 339 341
244 243 240 237 236 237 238 238 239 239 238 238 234 234 236 236 237 238 240 241 242 245 241 235 234 229 222 225 228 227 231 232 229 231 232 231 231 232 230 231 233 228 223 220 219 226 228 217 211 213 223 241 242 239 234 201 191 191 179 173 173 170 169 166 163 159 155 150 146 153 159 162 219 301 320 331 334 336 340 336 332 330 328 327 326
245 244 242 239 237 238 239 238 239 240 239 240 237 235 234 233 235 237 241 244 245 247 245 236 232 227 221 226 230 227 227 230 232 236 234 230 232 234 232 233 234 228 224 222 219 223 223 212 213 218 221 237 240 234 233 217 197 196 185 179 180 177 175 173 171 169 165 165 169 178 191 213 244 284 305 317 323 323 323 320 318 315 315 319 319
247 243 242 241 238 238 239 238 238 239 240 240 240 238 236 235 236 236 239 242 243 244 244 237 231 226 221 223 228 226 227 231 233 235 233 231 234 235 234 235 236 231 226 223 220 221 217 208 214 225 226 230 233 232 231 223 207 200 191 185 184 183 182 181 180 181 180 181 192 201 209 233 254 280 298 302 305 307 308 307 308 310 313 317 317
250 245 241 240 239 239 240 240 238 238 239 239 239 239 238 238 238 239 240 241 242 241 240 237 233 229 222 219 224 229 232 232 230 232 237 239 237 233 235 239 238 233 230 227 225 223 216 210 216 225 228 225 224 228 229 223 214 203 194 189 189 188 189 190 191 192 196 200 206 213 225 244 257 270 282 287 293 297 301 303 305 310 312 313 317
251 248 242 240 240 240 241 242 241 240 240 241 242 241 240 240 240 242 243 242 242 241 240 238 235 233 227 220 224 229 229 228 228 231 238 240 234 229 233 239 238 238 235 230 228 224 215 211 216 221 226 228 225 224 225 222 216 205 197 192 193 195 195 199 202 203 207 213 217 225 236 247 255 264 273 280 287 293 298 300 303 308 310 311 316
251 250 247 244 241 240 241 242 242 242 242 244 246 246 244 243 243 244 246 245 243 243 243 239 236 234 230 223 223 225 225 226 227 230 235 236 231 226 230 235 237 241 236 227 224 221 215 215 218 218 220 227 231 228 223 219 216 212 203 195 195 198 202 207 209 211 215 220 225 232 239 248 254 262 271 277 284 290 293 296 300 303 306 308 311
252 250 249 246 244 242 242 242 243 243 243 246 248 249 248 246 246 246 246 246 243 244 245 241 238 235 229 224 222 223 225 226 226 228 233 235 228 225 231 235 237 241 235 226 223 218 217 222 223 224 222 222 226 226 224 221 217 213 204 197 200 200 205 214 215 217 221 225 230 235 241 248 254 262 269 274 280 285 288 291 296 299 301 303 305
251 249 247 246 245 244 244 244 244 245 244 246 249 250 249 248 246 245 245 245 244 245 244 240 239 235 226 223 222 223 223 225 227 227 229 232 230 232 241 242 238 239 235 230 227 219 220 228 227 227 226 223 221 220 221 221 221 216 203 198 204 203 209 221 220 220 224 227 233 237 243 248 254 261 266 272 277 281 285 287 291 292 293 295 298
249 247 245 244 245 245 246 245 245 246 245 247 248 249 248 247 245 243 243 244 244 242 239 238 236 230 224 223 222 221 220 224 228 227 226 229 234 238 244 246 241 238 236 234 230 225 229 235 231 227 228 231 229 222 217 216 223 224 208 196 196 201 216 225 220 221 226 229 234 238 244 249 253 260 264 270 275 278 281 282 285 286 287 291 294
249 247 244 242 242 243 244 245 244 245 246 247 248 248 247 246 246 244 243 244 244 241 239 240 237 231 227 225 222 219 219 223 226 225 224 227 231 236 241 244 242 238 234 231 227 229 234 236 231 229 233 239 235 226 221 218 221 222 212 207 206 209 220 220 213 215 222 228 235 239 245 249 252 259 263 267 271 274 276 277 279 281 284 288 290
246 245 242 239 238 239 241 243 244 245 246 246 247 248 247 246 247 247 246 246 246 246 245 243 240 236 231 226 222 220 219 222 224 224 225 227 230 237 243 242 241 239 233 230 229 231 235 234 230 231 236 237 232 226 225 224 224 224 217 213 215 223 227 221 214 213 220 229 235 239 245 249 252 257 260 263 266 268 270 272 276 279 282 286 288
238 238 238 237 236 237 239 241 243 245 246 247 248 248 247 247 248 249 248 246 245 246 245 242 240 237 230 225 223 220 217 219 223 224 227 229 232 240 245 241 239 242 240 238 236 232 231 230 230 234 236 235 231 226 225 228 230 232 225 216 217 226 226 219 216 218 227 233 234 237 243 248 250 254 257 259 261 264 267 270 273 278 283 285 288
237 239 239 240 239 239 240 242 244 245 246 247 248 249 249 248 249 250 249 247 243 241 241 240 240 237 231 226 221 217 216 219 224 227 229 232 234 239 241 237 238 244 247 249 244 235 231 232 236 239 236 232 229 223 224 232 236 236 230 220 219 224 223 218 215 218 227 233 239 243 245 246 248 252 254 255 258 262 265 268 272 279 283 285 287
243 247 246 245 244 243 243 243 244 245 246 247 248 249 250 249 249 250 250 248 245 240 238 239 240 237 232 228 223 218 218 222 226 230 232 234 234 235 234 234 238 245 251 254 250 242 238 241 243 242 239 233 225 220 228 238 236 237 235 226 221 222 222 220 219 222 228 231 239 247 248 248 250 253 253 253 257 261 263 267 272 278 281 284 286
261 259 254 251 249 248 247 246 246 246 247 248 249 250 250 250 251 251 251 249 247 242 239 240 241 236 231 229 226 222 221 224 229 232 234 234 232 231 232 235 240 245 250 251 248 245 243 242 238 236 236 230 222 222 234 241 234 233 236 230 225 225 224 225 227 231 234 233 235 244 252 251 248 252 254 253 255 259 264 269 273 277 280 284 286